This is the latest recevied weather packets stored in our database for station/object EA7BW-10. If no packets are shown the sender has not sent any weather packets the latest 10 day(s).
| Time | Temp. | Humidity | Pressure | Rain* | Wind** | Luminosity | Snow |
|---|---|---|---|---|---|---|---|
| 1777461773 | 25.56° C | 52% | 1005 hPa | - | - | - | - |
| 1777460573 | 25° C | 53% | 1005.2 hPa | - | - | - | - |
| 1777459373 | 24.44° C | 53% | 1005.1 hPa | - | - | - | - |
| 1777458173 | 23.89° C | 55% | 1005.2 hPa | - | - | - | - |
| 1777456973 | 23.89° C | 53% | 1005.1 hPa | - | - | - | - |
| 1777455773 | 23.89° C | 54% | 1005 hPa | - | - | - | - |
| 1777454572 | 22.22° C | 56% | 1004.9 hPa | - | - | - | - |
| 1777453372 | 21.67° C | 57% | 1004.9 hPa | - | - | - | - |
| 1777452172 | 21.11° C | 57% | 1004.8 hPa | - | - | - | - |
| 1777450972 | 20.56° C | 58% | 1004.8 hPa | - | - | - | - |
| 1777449772 | 20.56° C | 59% | 1004.8 hPa | - | - | - | - |
| 1777448572 | 20.56° C | 59% | 1004.7 hPa | - | - | - | - |
| 1777447372 | 20.56° C | 58% | 1004.5 hPa | - | - | - | - |
| 1777446172 | 20° C | 59% | 1004.3 hPa | - | - | - | - |
| 1777444972 | 19.44° C | 59% | 1004.1 hPa | - | - | - | - |
| 1777443772 | 18.89° C | 60% | 1004 hPa | - | - | - | - |
| 1777442571 | 18.89° C | 60% | 1003.9 hPa | - | - | - | - |
| 1777441371 | 18.33° C | 60% | 1003.7 hPa | - | - | - | - |
| 1777440171 | 18.89° C | 60% | 1003.6 hPa | - | - | - | - |
| 1777438971 | 18.89° C | 60% | 1003.6 hPa | - | - | - | - |
| 1777437771 | 18.89° C | 59% | 1003.5 hPa | - | - | - | - |
| 1777436571 | 18.89° C | 59% | 1003.8 hPa | - | - | - | - |
| 1777435371 | 18.89° C | 59% | 1004 hPa | - | - | - | - |
| 1777434171 | 18.89° C | 58% | 1004 hPa | - | - | - | - |
| 1777432971 | 19.44° C | 58% | 1004.1 hPa | - | - | - | - |
* Rain since midnight (hover to see other rain measurements)
** Current wind speed in m/s (hover to see current wind gust speed)